Change the Weather History Date:

Thursday, January 24, 2013

  Actual Average Record
Temperature  
Mean Temperature 44 °F -  
Max Temperature 59 °F 53 °F 75 °F (2002)
Min Temperature 29 °F 32 °F 12 °F (2003)
Degree Days  
Heating Degree Days 21    
Moisture  
Dew Point 21 °F    
Average Humidity 41    
Maximum Humidity 71    
Minimum Humidity 24    
Precipitation  
Precipitation 0.00 in - - ()
Sea Level Pressure  
Sea Level Pressure 30.23 in    
Wind  
Wind Speed 13 mph (North)    
Max Wind Speed 18 mph    
Max Gust Speed 26 mph    
Visibility 10 miles    
Events      
Averages and records for this station are not official NWS values.
T = Trace of Precipitation, MM = Missing Value Source: NWS Daily Summary

Daily Weather History Graph

Daily Weather History Graph

Search for Another Location

Airport or City:

Trip Planner

Search our weather history database for the weather conditions in past years. The results will help you decide how hot, cold, wet, or windy it might be!

Date:

Astronomy

Jan. 24, 2013 Rise Set
Actual Time 7:23 AM EST 5:44 PM EST
Civil Twilight 6:56 AM EST 6:11 PM EST
Nautical Twilight 6:26 AM EST 6:41 PM EST
Astronomical Twilight 5:56 AM EST 7:11 PM EST
Moon 3:47 PM EST (1/24) 5:18 AM EST (1/24)
Length of Visible Light 11h 14m
Length of Day
10h 21m
Waxing Gibbous, 94% of the Moon is Illuminated
Jan 24
Waxing Gibbous
Jan 26
Full
Feb 3
Last Quarter
Feb 10
New
Feb 17
First Quarter

Hourly Weather History & Observations

Time (EST) Temp. Windchill Dew Point Humidity Pressure Visibility Wind Dir Wind Speed Gust Speed Precip Events Conditions
12:55 AM 43.3 °F 37.2 °F 28.2 °F 55% 30.11 in 10.0 mi SW 11.5 mph - N/A   Clear
1:55 AM 44.6 °F 38.1 °F 29.8 °F 56% 30.08 in 10.0 mi SW 13.8 mph - N/A   Clear
2:55 AM 46.0 °F 39.6 °F 31.5 °F 57% 30.06 in 10.0 mi WSW 15.0 mph - N/A   Clear
3:55 AM 46.0 °F 39.6 °F 33.3 °F 61% 30.04 in 10.0 mi WSW 15.0 mph - N/A   Clear
4:55 AM 47.1 °F - 34.3 °F 61% 30.04 in 10.0 mi WSW 16.1 mph - N/A   Clear
5:55 AM 46.2 °F 40.5 °F 35.2 °F 66% 30.05 in 10.0 mi SW 12.7 mph - N/A   Clear
6:55 AM 44.1 °F 39.0 °F 35.1 °F 71% 30.06 in 10.0 mi SW 9.2 mph - N/A   Clear
7:55 AM 44.4 °F 40.0 °F 35.4 °F 71% 30.09 in 10.0 mi WSW 8.1 mph - N/A   Clear
8:55 AM 48.7 °F - 36.1 °F 62% 30.11 in 10.0 mi WSW 11.5 mph - N/A   Clear
9:55 AM 53.2 °F - 36.5 °F 53% 30.13 in 10.0 mi West 8.1 mph - N/A   Clear
10:55 AM 58.6 °F - 29.7 °F 33% 30.14 in 10.0 mi WNW 13.8 mph 23.0 mph N/A   Clear
11:55 AM 59.4 °F - 28.6 °F 31% 30.15 in 10.0 mi NNW 8.1 mph - N/A   Clear
12:55 PM 59.2 °F - 30.7 °F 34% 30.16 in 10.0 mi NW 12.7 mph - N/A   Partly Cloudy
1:55 PM 54.5 °F - 26.2 °F 34% 30.19 in 10.0 mi NNE 12.7 mph - N/A   Mostly Cloudy
2:55 PM 53.4 °F - 21.2 °F 28% 30.21 in 10.0 mi NE 17.3 mph - N/A   Clear
3:55 PM 51.8 °F - 17.6 °F 26% 30.24 in 10.0 mi NE 13.8 mph - N/A   Clear
4:55 PM 48.6 °F - 12.6 °F 24% 30.29 in 10.0 mi NE 18.4 mph 24.2 mph N/A   Clear
5:55 PM 43.2 °F 35.0 °F 8.8 °F 25% 30.34 in 10.0 mi NE 18.4 mph 26.5 mph N/A   Clear
6:54 PM 39.2 °F 30.5 °F 6.8 °F 26% 30.39 in 10.0 mi NE 16.1 mph 24.2 mph N/A   Light Drizzle
6:55 PM 39.4 °F 31.1 °F 7.2 °F 26% 30.39 in 10.0 mi NE 15.0 mph 24.2 mph 0.00 in   Light Drizzle
7:04 PM 39.2 °F 29.8 °F 6.8 °F 26% 30.40 in 10.0 mi ENE 18.4 mph 24.2 mph N/A   Clear
7:55 PM 36.3 °F 27.5 °F 3.6 °F 25% 30.43 in 10.0 mi NE 13.8 mph - 0.00 in   Clear
8:55 PM 34.2 °F 24.8 °F 2.1 °F 26% 30.45 in 10.0 mi ENE 13.8 mph - N/A   Clear
9:55 PM 32.0 °F 24.8 °F 2.7 °F 29% 30.48 in 10.0 mi ENE 8.1 mph - N/A   Clear
10:55 PM 29.8 °F 22.2 °F 2.8 °F 32% 30.49 in 10.0 mi ENE 8.1 mph - N/A   Clear
11:55 PM 29.5 °F 23.4 °F 4.3 °F 34% 30.48 in 10.0 mi ENE 5.8 mph - N/A   Clear